User: anonymous   Login
Location: Heidgraben
(53.7081°N, 9.6576°E)
Time: 18:04:24
(UTC+00:00)
Language:

Cosmos 1980 - Orbit

View from above orbital plane
View from above orbital plane
View from above satellite
View from above satellite

Ground track
Ground track

The orbit data is extracted from the following two-line orbital elements,

1 19649U 88102A   20262.85632715 +.00000057 +00000-0 +54120-4 0  9995
2 19649 070.9982 088.7717 0007184 295.6993 064.3388 14.14713999642559
Epoch (UTC): 18 September 2020 20:33:06
Eccentricity: 0.0007184
inclination: 70.9982°
perigee height: 838 km
apogee height: 848 km
right ascension of ascending node: 88.7717°
argument of perigee: 295.6993°
revolutions per day: 14.14713999
mean anomaly at epoch: 64.3388°
orbit number at epoch: 64255

The dashed part of the orbit path shows where the satellite is in the earth's shadow,  

DLR